Location: Unspecified
(38.0000°N, 97.0000°W)
Time: 05:59:02
(UTC+00:00)

Daily predictions for brighter satellites

Satellite Brightness Start Highest point End
(mag) Time Altitude Azimuth Time Altitude Azimuth Time Altitude Azimuth
Cosmos 1802 Rocket 4.1 01:50:34 10° S 01:56:36 60° E 02:02:37 10° NNE
Cosmos 1980 Rocket 2.3 01:54:39 10° NNW 02:00:23 83° ENE 02:06:02 10° SSE
Meteor 1-27 4.2 01:57:56 10° S 02:03:30 65° E 02:09:01 10° NNE
Terra 2.9 02:00:54 10° SE 02:04:48 27° ENE 02:08:43 10° NNE
Cosmos 2084 Rocket 3.6 02:01:22 10° NNW 02:05:34 61° NE 02:09:47 10° SE
COSMOS 2406 3.4 02:01:41 10° S 02:07:12 51° ESE 02:12:44 10° NNE
Cosmos 2100 Rocket 4.4 02:02:13 10° SSW 02:08:26 72° W 02:14:45 10° N
Cosmos 1850 Rocket 4.4 02:04:10 10° NNW 02:09:17 67° WSW 02:14:26 10° S
USA 305 4.3 02:07:05 10° WNW 02:10:32 27° SW 02:13:41 10° S
Cosmos 1782 2.4 02:07:45 10° S 02:11:13 64° E 02:14:43 10° NNE
SL-08 R/B 4.4 02:07:27 10° NE 02:11:19 25° E 02:15:07 10° SSE
Cosmos 2233 Rocket 4.2 02:07:02 10° SSE 02:12:56 50° E 02:18:50 10° NNE
Cosmos 2228 3.0 02:10:17 10° S 02:14:16 53° E 02:18:16 10° NNE
NOSS 3-3 (C) 4.0 02:10:02 10° SW 02:15:01 70° NW 02:20:52 10° NNE
USA 215 3.3 02:10:51 10° SE 02:17:23 88° SW 02:23:57 10° NW
SL-24 R/B 4.4 02:14:22 10° NNE 02:18:54 74° ESE 02:24:11 10° S
Helios 1A Rocket 2.6 02:18:42 10° NNE 02:21:42 41° E 02:24:40 10° S
ERS-1 Rocket 3.3 02:19:47 10° SSE 02:24:35 50° ENE 02:29:26 10° N
Cosmos 2333 Rocket 3.5 02:20:15 10° N 02:24:55 25° ENE 02:29:07 12° ESE
Cosmos 1461 3.1 02:21:19 10° SW 02:24:59 63° WNW 02:28:39 10° NNE
Cosmos 2360 Rocket 4.1 02:22:34 10° NNE 02:25:46 15° NE 02:28:58 10° E
CZ-4B DEB 4.3 02:21:03 10° SSE 02:26:28 63° ENE 02:31:56 10° N
DELTA 2 R/B (1) 3.7 02:24:02 10° W 02:29:38 77° N 02:35:13 10° E
CZ-4B R/B 3.6 02:24:36 10° SE 02:29:58 48° ENE 02:35:19 10° N
CSL-04 Debris 4.4 02:29:35 10° S 02:34:59 76° WSW 02:40:27 10° NNW
Meteor 2-12 Rocket 4.5 02:28:56 10° N 02:35:01 66° E 02:41:05 10° SSE
Cosmos 1725 Rocket 4.3 02:29:31 10° SSW 02:35:45 72° W 02:41:59 10° N
Cosmos 2219 Rocket 4.3 02:34:52 10° NNE 02:36:44 11° NE 02:38:34 10° ENE
BREEZE-M DEB 3.8 02:33:49 10° SW 02:39:13 54° SE 02:44:09 10° ENE
Cosmos 1437 Rocket 2.8 02:45:02 17° SSE 02:47:26 43° E 02:50:52 10° NNE
CZ-3 Stage 3 2.7 02:46:56 10° SW 02:50:20 17° S 02:50:53 17° S
Cosmos 220 Rocket 3.8 02:47:03 10° S 02:51:01 63° ESE 02:55:04 10° NNE
SPOT 5 4.4 02:50:15 10° SSW 02:54:01 30° W 02:57:55 10° NW
Tsikada Rocket 3.9 02:51:47 10° N 02:57:57 89° E 03:03:46 12° S
Cosmos 1544 Rocket 3.4 02:54:00 11° S 02:58:04 69° E 03:02:22 10° NNE
Cosmos 2322 Rocket 3.3 02:55:28 10° N 03:00:23 29° ENE 03:03:13 20° ESE
Okean O Rocket 2.1 02:58:27 25° SE 03:00:27 42° ENE 03:04:30 10° N
Cosmos 2082 Rocket 4.5 02:55:55 10° WSW 03:00:42 27° WNW 03:05:30 10° N
CZ-4 R/B 2.8 03:01:37 10° SSW 03:04:51 31° W 03:08:07 10° NNW
Delta 2 Rocket 3.1 03:02:03 10° W 03:05:02 40° SSW 03:05:23 38° S
Cosmos 1933 3.1 03:04:39 24° S 03:06:45 65° E 03:10:31 10° NNE
USA 290 2.2 03:11:10 51° SE 03:11:26 53° ESE 03:14:29 10° NNE
USA 186 1.9 03:17:00 44° NE 03:17:00 44° NE 03:19:22 10° N
Cosmos 540 Rocket 4.0 03:15:25 31° SE 03:16:49 37° E 03:21:30 10° NE
Cosmos 1513 Rocket 4.4 03:16:08 16° S 03:21:07 73° E 03:27:13 10° N
Cosmos 1758 Rocket 3.5 03:17:53 10° N 03:22:19 84° W 03:24:28 30° S
Cosmos 2151 2.7 03:19:53 10° N 03:23:59 81° E 03:25:17 42° SSE
Cosmos 1464 Rocket 4.1 03:22:07 28° SSE 03:25:05 52° E 03:31:02 10° NNE
Okean-O 2.5 03:23:55 37° SSE 03:25:36 83° ENE 03:29:59 10° N
Cosmos 1486 Rocket 4.2 03:25:01 10° N 03:30:12 56° ENE 03:31:55 38° SE
Cosmos 2278 3.7 03:24:41 10° NNW 03:30:24 73° ENE 03:32:43 37° SE
SL-16 R/B 2.2 03:27:38 10° NNW 03:33:19 82° WSW 03:35:50 35° SSE
Cosmos 1825 Rocket 4.4 03:29:48 10° NNE 03:33:45 33° ENE 03:33:56 33° E
Longmarch 3A Rocket 3.9 03:31:57 10° WSW 03:34:34 15° SSW 03:34:34 15° SSW
Cosmos 2098 Rocket 3.0 03:37:35 40° S 03:39:15 84° E 03:43:26 10° N
Meteor 1-5 Rocket 4.4 03:34:41 10° N 03:40:28 59° E 03:42:21 41° SE
Terra 3.5 03:38:33 12° SSW 03:42:12 28° W 03:46:14 10° NW
Cosmos 1072 Rocket 4.4 03:41:17 28° S 03:44:52 84° E 03:51:14 10° N
Cosmos 1602 Rocket 3.5 03:41:22 10° N 03:45:43 83° W 03:46:36 56° S
Cosmos 468 Rocket 4.5 03:49:16 40° E 03:49:16 40° E 03:53:57 10° NNE
GEOS 3 Rocket 4.4 03:57:07 33° SSW 03:58:47 43° WSW 04:03:52 10° NW
Cosmos 2297 Rocket 4.4 04:02:02 10° ENE 04:02:02 10° ENE 04:02:08 10° ENE
IRS-1C Rocket 4.1 03:58:53 56° SE 03:59:51 68° ENE 04:05:05 10° N
Chandra Rocket (1) 4.0 03:41:10 10° W 04:01:32 45° SSW 04:03:45 38° SSE
Ariane Rocket 2.9 04:01:13 61° SE 04:01:56 71° ENE 04:06:59 10° N
CZ-4B R/B 3.2 04:03:57 52° NNW 04:03:57 52° NNW 04:06:41 10° NNW
Cosmos 2034 Rocket 3.9 04:03:57 48° SSE 04:05:49 74° E 04:12:09 10° N
Cosmos 1763 Rocket 3.9 04:04:44 25° SW 04:07:48 63° WNW 04:13:02 10° NNE
Cosmos-2242 3.9 04:10:09 36° NE 04:10:09 36° NE 04:12:55 10° NNE
Cosmos 2333 Rocket 2.9 04:03:57 10° NW 04:09:22 45° WSW 04:11:08 35° SSW
Cosmos 2360 Rocket 2.1 04:04:44 10° NNW 04:10:26 81° WSW 04:11:29 60° S
Meteor 2-2 Rocket 4.4 04:11:39 53° ESE 04:11:51 53° E 04:17:26 10° NNE
Cosmos 1606 Rocket 4.2 04:12:45 43° WSW 04:13:33 50° W 04:17:45 10° N
Meteor 2-10 4.2 04:08:01 10° NNW 04:13:45 78° W 04:14:57 56° SSW
Okean 1 4.0 04:14:50 45° NW 04:14:50 45° NW 04:17:48 10° N
DELTA 2 R/B (1) 3.6 04:10:31 10° WNW 04:16:00 61° SSW 04:16:02 61° SSW
CZ-4B R/B 3.3 04:18:05 73° SW 04:18:20 76° WSW 04:23:11 10° NNW
Cosmos 1726 Rocket 3.8 04:19:44 57° WNW 04:19:44 57° WNW 04:23:28 10° N
Nadezhda 4 Rocket 4.0 04:13:38 10° N 04:19:45 77° W 04:21:20 52° SSW
Cosmos 2219 Rocket 2.0 04:15:55 10° NNW 04:21:36 77° ENE 04:22:09 70° ESE
NOSS 3-4 (A) 4.0 04:15:46 10° NW 04:22:52 72° WSW 04:25:17 48° S
NOSS 3-4 (C) 4.0 04:16:25 10° NW 04:23:33 72° WSW 04:25:56 48° S
Cosmos 990 Rocket 3.8 04:18:55 10° NNW 04:24:07 80° ENE 04:24:12 79° E
Cosmos 2333 4.2 04:20:24 10° NNW 04:26:08 72° WSW 04:26:49 64° SSW
Cosmos 1634 Rocket 4.0 04:25:58 57° ESE 04:26:17 58° E 04:32:20 10° NNE
SPOT 3 Rocket 4.1 04:27:32 44° SW 04:28:18 48° W 04:33:17 10° NNW
Okean O Rocket 3.9 04:35:41 13° WSW 04:36:48 15° W 04:39:11 10° WNW
Cosmos 2195 Rocket 4.3 04:31:53 10° N 04:38:04 82° W 04:38:52 68° SSW
Cosmos 2026 Rocket 3.9 04:34:56 10° N 04:41:20 88° ENE 04:42:04 73° S
Cosmos 841 Rocket 4.1 04:45:20 47° NE 04:45:20 47° NE 04:49:14 10° NNE
Cosmos 2322 Rocket 3.1 04:39:15 10° NW 04:44:25 37° WSW 04:45:01 36° WSW
Cosmos 44 3.6 04:39:11 10° NNW 04:44:11 68° NNE 04:44:11 68° NNE
Cosmos 1627 Rocket 4.4 04:45:52 10° N 04:52:16 80° W 04:52:53 72° SSW
Cosmos 372 Rocket 4.3 04:55:27 10° NNW 04:59:39 58° NNE 04:59:39 58° NNE
Cosmos 2237 Rocket 3.8 04:59:10 10° N 05:03:34 23° NE 05:04:08 22° ENE
Cosmos 2227 Rocket 4.2 05:12:17 17° ENE 05:12:17 17° ENE 05:14:00 10° NE
NOSS 0 Rocket 4.4 05:07:31 10° NNW 05:13:29 50° ENE 05:13:31 50° ENE
ISS -0.6 05:13:00 10° NNW 05:13:41 14° NNW 05:13:41 14° NNW
COSMOS 2428 2.9 05:17:23 10° NNW 05:22:19 65° N 05:22:19 65° N
Cosmos 1937 Rocket 4.2 05:28:07 10° NNW 05:31:53 49° N 05:31:53 49° N
Cosmos 2297 Rocket 2.6 05:43:47 59° N 05:43:47 59° N 05:48:28 10° NNE
Meteor 1-11 Rocket 4.2 05:44:27 10° N 05:48:53 57° N 05:48:53 57° N
Meteor 1-27 Rocket 4.2 06:01:46 60° N 06:01:46 60° N 06:06:25 10° N
ARIANE 5 R/B 4.3 06:02:56 31° NNW 06:02:56 31° NNW 06:05:17 10° NNW
ALOS 2 4.4 06:05:55 30° NNW 06:05:55 30° NNW 06:08:10 10° NNW
USA 234 3.2 06:10:24 10° NE 06:16:29 78° NE 06:16:29 78° NE
Lacrosse 4 Rocket 3.8 06:20:58 20° NNW 06:20:58 20° NNW 06:22:38 10° N
CZ-2C R/B 3.5 06:26:45 44° NNE 06:26:45 44° NNE 06:30:40 10° N
Cosmos 2219 4.4 06:39:10 33° ENE 06:39:10 33° ENE 06:42:44 10° NE
SL-16 R/B 3.3 06:33:15 10° N 06:38:28 36° ENE 06:38:39 36° ENE
Iridium 4 Rocket 4.2 06:41:38 58° NNE 06:41:38 58° NNE 06:46:20 10° N
CZ-2C R/B 3.8 06:36:42 10° N 06:41:34 57° NNW 06:41:34 57° NNW
Cosmos 2237 Rocket 3.4 06:42:26 10° NNW 06:45:54 35° NW 06:45:54 35° NW
CENTAUR R/B 3.9 06:50:24 23° E 06:50:24 23° E 06:53:37 10° NE
Cosmos 2227 Rocket 3.0 06:54:02 45° NW 06:54:02 45° NW 06:58:51 10° N
ATLAS 5 CENTAUR R/B 3.2 06:55:44 79° ENE 06:55:44 79° ENE 07:09:22 10° NE
ACS3 Solar Sail 2.2 06:50:27 10° NNE 06:55:29 51° ENE 06:55:29 51° ENE
Cosmos 2263 Rocket 2.7 06:58:06 55° N 06:58:06 55° N 07:02:34 10° NNE
SeaSat 1 3.6 07:09:01 36° ENE 07:09:03 36° ENE 07:13:31 10° N
Meteor 2-10 Rocket 4.4 07:03:37 10° NNW 07:07:50 48° NW 07:07:50 48° NW
IDEFIX/ARIANE 42P 4.2 07:11:36 10° NE 07:15:21 24° E 07:15:21 24° E
Cosmos 1844 Rocket 3.7 07:27:25 36° E 07:27:25 36° E 07:31:50 10° NE
ADEOS Rocket 4.4 07:26:10 10° NNE 07:32:48 34° E 07:34:33 31° ESE
Cosmos 2082 3.9 07:38:46 65° NNW 07:38:46 65° NNW 07:43:49 10° NNE
S3M 3.8 07:55:00 76° W 07:55:06 76° W 08:01:15 10° N
FENGYUN 3A 4.3 07:51:43 10° NNE 07:56:52 44° E 07:57:09 43° ESE
Atlas Centaur 2 3.6 07:59:50 32° SE 07:59:50 32° SE 08:04:16 10° ESE
Cosmos 2298 Rocket 4.4 08:04:28 10° N 08:09:44 60° ENE 08:10:44 50° ESE
NPP 3.8 08:06:02 10° NNE 08:11:23 62° ESE 08:11:49 60° SE
Cosmos 2315 Rocket 3.9 08:12:16 66° WSW 08:12:51 71° W 08:19:12 10° N
Cosmos 1844 3.5 08:15:49 80° SSW 08:16:11 89° WNW 08:21:59 10° NNE
Meteor 1-21 4.2 08:15:50 67° SE 08:16:25 74° E 08:22:01 10° NNE
ATLAS 2AS CENTAUR R/B 2.8 08:11:12 10° NNW 08:17:59 71° NE 08:24:48 10° SE
Cosmos 1953 4.0 08:16:25 10° NNW 08:18:05 26° NNW 08:18:05 26° NNW
Cosmos 783 Rocket 4.3 08:20:10 86° W 08:20:12 87° WNW 08:25:28 10° NNE
Cosmos 1633 Rocket 3.4 08:17:11 10° N 08:20:53 63° NNE 08:20:53 63° NNE
SL-16 R/B 3.6 08:17:32 10° NW 08:20:28 24° WNW 08:20:28 24° WNW
Cosmos 1470 Rocket 3.9 08:22:35 10° N 08:26:54 57° E 08:27:08 56° E
Cosmos 1709 Rocket 4.0 08:21:15 10° NNW 08:27:19 58° W 08:27:54 56° WSW
Cosmos 2150 Rocket 3.9 08:25:23 10° NNW 08:30:51 81° WSW 08:31:24 71° SSW
Cosmos 2344 4.1 08:27:52 33° SSE 08:31:06 48° ESE 08:37:59 10° NE
MSX 3.9 08:28:14 10° N 08:33:56 64° WNW 08:34:47 56° WSW
BREEZE-M DEB (TANK) 3.8 08:31:17 10° WNW 08:36:10 63° SW 08:47:18 10° SE
ACS3 Solar Sail 3.2 08:33:50 10° NNW 08:38:05 21° WNW 08:38:56 20° WNW
CENTAUR R/B 2.9 08:37:28 37° W 08:38:47 43° NW 08:45:04 10° NNE
Resurs 1-4 Rocket 3.2 08:35:15 10° NNE 08:40:06 37° E 08:42:22 25° SE
Okean 2 3.6 08:41:30 60° N 08:41:30 60° N 08:44:41 10° N
CZ-4C R/B 3.9 08:35:47 10° NNW 08:42:50 51° NE 08:51:22 10° SE
Okean 3 3.9 08:44:22 47° ESE 08:44:44 49° E 08:48:36 10° NNE
SeaSat 1 4.1 08:48:36 20° WNW 08:48:36 20° WNW 08:50:33 10° NW
Envisat 3.5 08:43:28 10° NNE 08:48:26 53° E 08:50:12 36° SSE
H-2A R/B 3.4 08:46:58 10° NNE 08:51:57 36° E 08:55:14 19° SSE
IDEFIX/ARIANE 42P 3.3 08:50:30 10° N 08:55:18 38° WNW 08:56:02 36° W
ALOS 3.2 08:51:28 10° NNE 08:55:47 42° E 08:57:38 28° SSE
Cosmos 1943 3.7 08:57:50 10° NW 09:02:49 37° W 09:02:49 37° W
USA 281 3.9 09:01:25 10° SE 09:07:45 54° ENE 09:14:06 10° NNW
Cosmos 1844 Rocket 3.8 09:09:02 25° W 09:10:37 28° WNW 09:15:25 10° N
IRIDIUM 114 4.3 09:05:37 10° N 09:10:52 81° E 09:13:55 26° S
Cosmos 2074 Rocket 3.9 09:08:59 10° N 09:15:15 79° W 09:19:27 22° S
Cosmos 1515 Rocket 4.2 09:15:03 37° W 09:15:26 38° WNW 09:19:34 10° N
DMSP B5D2-2 4.0 09:12:06 20° SSE 09:15:44 89° ENE 09:20:59 10° NNW
SL-24 R/B - RUBIN 2 3.6 09:15:34 46° SW 09:16:54 77° WNW 09:21:22 10° NNE
Cosmos 2154 Rocket 3.9 09:11:37 10° N 09:17:52 85° W 09:22:42 18° S
ADEOS Rocket 4.0 09:11:18 10° N 09:18:16 43° WNW 09:21:28 28° WSW
IRIDIUM 103 4.2 09:14:46 10° N 09:20:01 83° W 09:23:02 26° S
NOSS 2-3 (E) 4.2 09:23:04 28° SSE 09:24:23 38° ESE 09:27:48 10° NE
Cosmos 2184 Rocket 3.9 09:19:23 10° NNW 09:25:30 67° W 09:29:47 21° S
Cosmos 1943 Rocket 4.1 09:21:30 10° SSE 09:25:58 25° ESE 09:30:28 10° NE
MOZ.5/SAFIR/RUBIN 5/SL-8 3.8 09:24:57 35° SSW 09:26:35 55° W 09:31:04 10° NNW
H-2A R/B 2.6 09:27:26 12° SSE 09:30:35 57° ENE 09:34:09 10° N
CZ-2D R/B 2.1 09:26:00 10° NNE 09:31:27 81° WNW 09:34:48 25° SSW
Cosmos 1538 Rocket 4.3 09:31:37 31° SW 09:33:44 51° WNW 09:38:46 10° N
Cosmos 1603 3.9 09:28:40 10° NNW 09:34:10 49° WSW 09:38:35 16° S
Cosmos 1867 4.2 09:31:07 10° NW 09:35:57 33° WSW 09:37:37 27° SW
NOSS 3-2 (A) 3.7 09:34:01 26° WSW 09:36:21 41° NW 09:41:43 10° NNE
IRIDIUM 106 4.5 09:33:10 10° NNW 09:38:16 55° W 09:41:20 23° SSW
Atlas Centaur 2 3.4 09:41:45 22° WSW 09:45:31 36° SSW 09:52:38 10° SE
Cosmos 923 Rocket 4.0 09:42:26 20° SSW 09:46:12 86° ESE 09:51:31 10° NNE
Cosmos 1610 Rocket 4.4 09:40:58 10° N 09:47:10 74° W 09:53:25 10° S
Cosmos 1733 Rocket 3.8 09:45:32 10° N 09:49:46 52° E 09:53:57 10° SSE
Cosmos 1441 Rocket 3.0 09:50:54 31° SW 09:52:11 53° W 09:55:27 10° N
H-2A R/B 3.8 09:49:44 10° NE 09:53:10 27° E 09:56:37 10° SSE
ADEOS II 2.1 09:51:45 10° N 09:56:55 64° WNW 10:01:02 16° SSW
NOSS 3-2 (C) 3.0 09:54:58 21° SW 09:58:14 78° WNW 10:03:51 10° NNE
ARGOS 3.3 09:59:34 10° NNE 10:04:56 77° ESE 10:10:16 10° S
Cosmos 2181 Rocket 4.5 10:01:28 10° S 10:07:28 61° E 10:13:31 10° NNE
ATLAS 2AS CENTAUR R/B 3.8 10:03:32 10° WNW 10:08:10 20° WSW 10:12:09 12° SSW
Cosmos 1420 Rocket 4.0 10:03:08 10° NNW 10:08:25 86° ENE 10:13:37 10° SSE
Cosmos 2278 Rocket 3.1 10:05:44 10° S 10:11:08 47° ESE 10:16:33 10° NE
Centaur D AC-29 3.6 10:08:20 12° SSW 10:11:33 15° S 10:14:12 10° SE
Cosmos 1812 3.0 10:13:38 10° NW 10:14:11 14° WNW 10:14:11 14° WNW
NOSS 2-3 (C) 2.9 10:16:33 15° SW 10:19:24 76° NW 10:22:49 10° NNE
Cosmos 1607 4.3 10:13:04 10° NNW 10:19:29 75° ENE 10:25:54 10° SE
Resurs 1-4 Rocket 3.3 10:15:23 10° NNW 10:19:38 26° WNW 10:23:25 12° WSW
Cosmos 1400 Rocket 3.9 10:18:22 10° NW 10:21:25 23° W 10:24:01 12° SW
METEOR-M 4.5 10:19:10 10° N 10:24:17 49° WNW 10:29:23 10° SW
AQUA 3.8 10:25:26 10° N 10:30:05 68° WNW 10:34:43 10° SSW
SL-16 R/B 2.7 10:24:43 10° SSE 10:30:58 85° ENE 10:37:14 10° NNW
H-2A R/B 3.3 10:26:31 10° N 10:31:01 28° WNW 10:35:31 10° SW
CZ-4C R/B 3.5 10:24:06 10° NW 10:31:16 41° WSW 10:39:32 10° S
ALOS 3.9 10:29:21 10° NNW 10:32:21 18° WNW 10:35:21 10° WSW
SL-24 R/B 4.1 10:28:43 10° NNE 10:32:38 82° ESE 10:37:01 10° S
CZ-2C R/B 2.9 10:31:28 10° NNE 10:35:57 57° E 10:40:25 10° S
SL-8 Rocket 4.1 10:33:32 10° NNW 10:39:36 56° W 10:45:34 10° SSW
Okean 1-7 4.0 10:38:38 10° SW 10:42:09 27° WNW 10:45:43 10° NNW
Cosmos 2341 Rocket 4.2 10:36:22 10° NNW 10:42:31 55° W 10:48:37 10° SSW
Cosmos 1869 4.1 10:42:31 10° N 10:45:50 47° E 10:49:08 10° SSE
Meteor 2-5 Rocket 3.8 10:40:54 10° SSW 10:46:20 62° W 10:51:53 10° N
Cosmos 2218 Rocket 4.2 10:42:52 10° NNW 10:49:06 57° W 10:55:19 10° SSW
Exosat Rocket 3.6 10:46:46 10° SSW 10:51:46 73° WNW 10:57:05 10° NNE
USA 281 4.1 10:47:07 10° SSW 10:52:27 26° WSW 10:57:49 10° NW
